Terminal Aerodrome Forecast
Issued by NWS

Home | Current Version | Previous Version | Text Only | Print | Product List | Glossary On
Versions: 1 2 3 4 5 6 7 8 9 10 11 12 13 14
000
FTUS45 KTFX 050520
TAFGTF
TAF
KGTF 050520Z 0506/0606 24008KT P6SM SCT110 BKN150
      TEMPO 0507/0510 -SHRA BKN060
     FM051900 25011KT P6SM SCT070 BKN100 PROB30 0600/0604 VRB20G30KT
      -TSRA BKN050CB
     FM060400 32010KT P6SM SCT060 BKN100=

USA.gov is the U.S. government's official web portal to all federal, state and local government web resources and services.